This is the latest recevied weather packets stored in our database for station/object HB9FHL-13. If no packets are shown the sender has not sent any weather packets the latest 10 day(s).
| Time | Temp. | Humidity | Pressure | Rain* | Wind** | Luminosity | Snow |
|---|---|---|---|---|---|---|---|
| 1777841131 | 15° C | - | 1016.5 hPa | 0 mm | - | - | - |
| 1777840831 | 13.89° C | - | 1014.2 hPa | 0 mm | - | - | - |
| 1777840530 | 15° C | - | 1017.3 hPa | 0 mm | - | - | - |
| 1777840230 | 14.44° C | - | 1015 hPa | 0 mm | - | - | - |
| 1777839929 | 13.89° C | - | 1015.8 hPa | 0 mm | - | - | - |
| 1777839629 | 14.44° C | - | 1018.2 hPa | 0 mm | - | - | - |
| 1777839328 | 13.89° C | - | 1015.8 hPa | 0 mm | - | - | - |
| 1777839028 | 13.89° C | - | 1016.6 hPa | 0 mm | - | - | - |
| 1777838727 | 14.44° C | - | 1015.9 hPa | 0 mm | - | - | - |
| 1777838427 | 14.44° C | - | 1017.5 hPa | 0 mm | - | - | - |
| 1777838126 | 15° C | - | 1015 hPa | 0 mm | - | - | - |
| 1777837826 | 15° C | - | 1013.5 hPa | 0 mm | - | - | - |
| 1777837525 | 13.89° C | - | 1015 hPa | 0 mm | - | - | - |
| 1777837225 | 15° C | - | 1015.8 hPa | 0 mm | - | - | - |
| 1777836924 | 15° C | - | 1018.4 hPa | 0 mm | - | - | - |
| 1777836624 | 14.44° C | - | 1016.5 hPa | 0 mm | - | - | - |
| 1777836323 | 14.44° C | - | 1017.4 hPa | 0 mm | - | - | - |
| 1777836023 | 15° C | - | 1015.2 hPa | 0 mm | - | - | - |
| 1777835723 | 15° C | - | 1015.8 hPa | 0 mm | - | - | - |
| 1777835422 | 15° C | - | 1016.6 hPa | 0 mm | - | - | - |
| 1777835272 | 15° C | - | 1014.9 hPa | 0 mm | - | - | - |
| 1777835122 | 15° C | - | 1014.9 hPa | 0 mm | - | - | - |
| 1777834821 | 15° C | - | 1013.2 hPa | 0 mm | - | - | - |
| 1777834521 | 15° C | - | 1013.4 hPa | 0 mm | - | - | - |
| 1777834220 | 14.44° C | - | 1017.5 hPa | 0 mm | - | - | - |
* Rain since midnight (hover to see other rain measurements)
** Current wind speed in m/s (hover to see current wind gust speed)